DECAYED
Showing default

TECHEDSAT-11, 60208 (Decayed)

Orbit data source: Space-Track

TECHEDSAT-11, 60208 was an American payload satellite in LEO that was launched on Thu, 04 Jul 2024 UTC via an FIREFLY ALPHA launch vehicle from the Air Force Western Test Range (AFWTR). Payload-class satellites include a variety of spacecraft equipped with specific instruments for various scientific and technological missions. These include communications satellites like Starlink; space stations such as the ISS; scientific satellites like the Hubble; Earth observation satellites from companies like Planet Labs, Umbra, and HawkEye 360; GPS; miniature CubeSats for education and research; and military/defense satellites.

Not visible in the next 10 days
Identifier
60208, 2024-125F
Orbit
Decayed
Country
Flag of USUS
Related business
Manufacturer
ARC
Mission
Decayed Civil Technology
Bus & Motor
CUBESAT 6UXL, Unknown motor
Mass
10 kg wet, 10 kg dry
Launch date (UTC)
2024-07-04 (2 years ago)
Launch vehicle
FIREFLY ALPHA
Launch site
Air Force Western Test Range (AFWTR)
Object type
Payload
Rocket body
Debris
Shape & HBR
Box + 1 Sail, 2.0 m
Radar Cross Section
0.045 m², Medium (>0.1 m² and < 1m²)

Expand to show TLE details & history
Last TLE update: 7 months ago

TLE from 7 months ago
0 TECHEDSAT-11
1 60208U 24125F   26046.49759830  .22159603  22509-5  50511-2 0  9998
2 60208  97.2328 260.3655 0009466 338.6387  21.4511 16.29991395 90512
Epoch: 2026-02-15T11:56Z
TLE epoch observation values (Epoch: 2026-02-15T11:56:32.493Z)
Latitude
-0.00001°
Longitude
-64.27533°
Altitude
190.016 km
Speed
7.796 km/s
True Right ascension
17h 21m 27s
True Declination
0° 00' 00"
Sunlit
Object was in daylight at epoch
Visualization orbit readout
Latitude
Unknown
Longitude
Unknown
Altitude
Unknown
Speed
Unknown
Apparent Right ascension
Unknown
Apparent Declination
Unknown
Sunlit
N/A
Visualization observer readout
Local Sidereal Time
03:32:10
Azimuth
Unknown
Elevation
Unknown
Doppler factor
Unknown
Orbital elements
Apogee altitude
195.593 km
Perigee altitude
183.159 km
Semi-major axis
6,567.513 km
Eccentricity
0.00095
Inclination
97.2328°
RAAN
260.3655°
Arg. of periapsis
338.6387°
True anomaly
21.49081°
Mean anomaly
21.4511°
Eccentric anomaly
21.47095°
Mean motion
4.07795 °/min
Orbital period
88.28 mins
BSTAR
0.0050511
Loading maneuver chart data...
Computing Atmospheric mass density...
Loading historical data...
Loading historical data...
Loading historical data...
Loading historical data...
Loading historical data...
Loading historical data...
Loading historical data...

Documentation

Showing up to 5 results
|